This is the latest recevied weather packets stored in our database for station/object IU7URP-13. If no packets are shown the sender has not sent any weather packets the latest 10 day(s).
| Time | Temp. | Humidity | Pressure | Rain* | Wind** | Luminosity | Snow |
|---|---|---|---|---|---|---|---|
| 1777961173 | 18.33° C | 99% | 1021.4 hPa | - | - | - | - |
| 1777959971 | 18.33° C | 99% | 1021.4 hPa | - | - | - | - |
| 1777958770 | 17.22° C | 99% | 1021.4 hPa | - | - | - | - |
| 1777957568 | 16.67° C | 99% | 1021.4 hPa | - | - | - | - |
| 1777956762 | 15° C | 99% | 1021.4 hPa | - | - | - | - |
| 1777955560 | 15° C | 99% | 1021.4 hPa | - | - | - | - |
| 1777954359 | 14.44° C | 99% | 1021.4 hPa | - | - | - | - |
| 1777953158 | 13.89° C | 99% | 1021.3 hPa | - | - | - | - |
| 1777951956 | 13.89° C | 99% | 1021.4 hPa | - | - | - | - |
| 1777951885 | 13.89° C | 99% | 1021.4 hPa | - | - | - | - |
| 1777950684 | 14.44° C | 99% | 1021.4 hPa | - | - | - | - |
| 1777949483 | 13.89° C | 99% | 1021.3 hPa | - | - | - | - |
| 1777948253 | 13.33° C | 99% | 1021.3 hPa | - | - | - | - |
| 1777947052 | 12.78° C | 99% | 1021.2 hPa | - | - | - | - |
| 1777945850 | 13.33° C | 99% | 1021.2 hPa | - | - | - | - |
| 1777944649 | 12.78° C | 99% | 1021.2 hPa | - | - | - | - |
| 1777943448 | 12.22° C | 99% | 1021.1 hPa | - | - | - | - |
| 1777942246 | 12.22° C | 99% | 1021.1 hPa | - | - | - | - |
| 1777941045 | 12.78° C | 99% | 1021.1 hPa | - | - | - | - |
| 1777939849 | 13.33° C | 99% | 1021.2 hPa | - | - | - | - |
| 1777938647 | 14.44° C | 99% | 1021.2 hPa | - | - | - | - |
| 1777937446 | 14.44° C | 99% | 1021.4 hPa | - | - | - | - |
| 1777936255 | 13.89° C | 99% | 1021.6 hPa | - | - | - | - |
| 1777935053 | 13.33° C | 99% | 1021.8 hPa | - | - | - | - |
| 1777933852 | 13.89° C | 99% | 1021.7 hPa | - | - | - | - |
* Rain since midnight (hover to see other rain measurements)
** Current wind speed in m/s (hover to see current wind gust speed)